WILDBLUE-1

Last updated on Sat Apr 04 2026 00:02:49 GMT+0000 (Coordinated Universal Time)

1 29643U 06054A 26093.58377244 -.00000050 00000+0 00000+0 0 9993 2 29643 2.6111 81.4071 0001698 290.5092 278.9573 1.00271980 53040
UTC large
Height (km)
Speed (km/s)
/
Latitude / Longitude
Inclination (degrees)
Orbital Period (minutes)
Azimuth
Elevation
Range (km)
Doppler Factor

Next 0 passes for location: London (51.5072 / 0.1276)

Sorry there are no passes over London.